Location: Goettingen
(51.5300°N, 9.9433°E)
Time: 00:44:48
(UTC+02:00)

ISS - Pass Details

Date: 23 May 2017
Orbit: 402 x 408 km, 51.6° (Epoch: 30 May)

Event Time Altitude Azimuth Distance (km) Brightness Sun altitude
Rises 04:24:17 0° 284° (WNW) 2,331 -0.3 -7.1°
Reaches altitude 10° 04:26:29 10° 275° (W) 1,467 -1.4 -6.8°
Maximum altitude 04:29:30 34° 208° (SSW) 684 -3.2 -6.5°
Drops below altitude 10° 04:32:30 10° 141° (SE) 1,457 -1.1 -6.2°
Sets 04:34:40 0° 132° (SE) 2,312 0.1 -5.9°
